Back to catalog

SL-12 R/B(2)

AliveGEO
NORAD 11569·ROCKET BODY·🇷🇺 Russia

Launched Oct 26, 1976 from Baikonur Cosmodrome

Loading…

TLE

FreshSource: Space-Track

Epoch: Sep 14, 2026, 13:32 UTC

1 11569U 76107F   26257.56400961 -.00000123  00000-0  00000-0 0  9993
2 11569   2.5377 259.1743 0010205 215.4459 315.7110  1.01460850186409

Track SL-12 R/B(2) in real time with AllMySat

Download on the App Store